EST,Max TemperatureF,Mean TemperatureF,Min TemperatureF,Max Dew PointF,MeanDew PointF,Min DewpointF,Max Humidity, Mean Humidity, Min Humidity, Max Sea Level PressureIn, Mean Sea Level PressureIn, Min Sea Level PressureIn, Max VisibilityMiles, Mean VisibilityMiles, Min VisibilityMiles, Max Wind SpeedMPH, Mean Wind SpeedMPH, Max Gust SpeedMPH,PrecipitationIn, CloudCover, Events, WindDirDegrees
2011-11-1,68,52,35,41,35,30,100,52,26,30.33,30.28,30.25,10,10,10,7,2,,0.00,0,,78
2011-11-2,66,52,39,39,37,36,87,55,32,30.39,30.32,30.25,10,10,10,12,4,,0.00,0,,97
2011-11-3,68,55,42,55,47,39,88,72,49,30.19,30.01,29.84,10,8,2,18,5,21,0.00,4,Rain,200
2011-11-4,64,54,44,43,40,36,71,58,42,30.02,29.93,29.86,10,10,10,16,11,24,0.00,1,,287
2011-11-5,60,50,41,39,32,27,87,53,29,30.32,30.27,30.20,10,10,7,12,8,23,0.00,0,,66
2011-11-6,64,54,44,46,42,34,82,60,48,30.43,30.37,30.33,10,10,10,14,9,20,0.00,1,,74
2011-11-7,69,58,48,48,47,45,87,61,43,30.39,30.32,30.26,10,10,10,8,4,,0.00,0,,60
2011-11-8,69,58,46,50,49,45,93,63,46,30.27,30.20,30.16,10,10,8,5,2,,0.00,1,,88
2011-11-9,69,58,48,55,52,46,93,71,56,30.15,30.07,30.00,10,10,10,7,1,,0.00,3,,140
2011-11-10,53,50,46,43,32,23,82,51,30,30.02,29.98,29.95,10,10,7,21,11,30,0.00,1,,286
2011-11-11,55,42,30,32,19,10,75,40,18,30.21,30.17,30.15,10,10,10,14,7,23,0.00,0,,279
2011-11-12,62,45,28,34,29,27,93,46,26,30.31,30.26,30.24,10,10,10,10,2,,0.00,0,,234
2011-11-13,68,54,39,48,41,34,87,56,45,30.26,30.17,30.10,10,10,10,9,3,18,0.00,1,,198
2011-11-14,75,65,55,55,52,46,72,56,47,30.14,30.08,30.01,10,10,10,14,6,18,0.00,6,,201
2011-11-15,73,68,62,63,60,55,94,77,53,30.04,29.99,29.94,10,8,3,13,8,18,0.00,7,,217
2011-11-16,71,68,62,66,64,59,94,86,78,29.89,29.82,29.76,5,4,2,13,10,23,0.00,6,Rain,224
2011-11-17,53,48,42,45,31,21,76,53,34,30.28,30.14,29.97,10,10,10,17,11,28,0.00,2,,294
2011-11-18,53,40,28,27,23,21,86,44,28,30.46,30.39,30.35,10,10,10,12,6,23,0.00,0,,79
2011-11-19,57,50,42,37,31,25,54,49,43,30.40,30.35,30.30,10,10,10,12,8,,0.00,6,,62
2011-11-20,66,57,48,57,54,46,94,83,68,30.36,30.30,30.27,10,6,1,8,3,,0.00,6,Rain,102
2011-11-21,71,63,55,63,59,54,94,87,69,30.30,30.25,30.18,10,5,0,9,3,,0.00,5,,250
2011-11-22,75,67,59,61,58,55,88,71,53,30.17,30.06,29.96,10,9,3,14,5,28,0.00,6,Rain,206
2011-11-23,60,56,48,54,44,39,82,64,48,30.16,30.07,29.96,10,10,10,16,11,25,0.00,3,,298
2011-11-24,66,50,35,39,34,28,93,52,24,30.37,30.33,30.29,10,10,7,8,2,,0.00,0,,98
2011-11-25,66,48,30,37,32,27,100,51,24,30.40,30.31,30.26,10,10,10,6,1,,0.00,0,,194
2011-11-26,66,58,51,52,48,39,82,67,59,30.32,30.24,30.18,10,10,10,10,4,,0.00,7,,89
2011-11-27,84,72,59,54,51,48,82,56,29,30.09,30.00,29.92,10,10,10,14,9,25,0.00,6,,146
2011-11-28,69,56,42,59,47,36,94,84,28,29.84,29.78,29.75,10,4,1,16,12,33,0.00,8,Rain,201
2011-11-29,39,38,37,34,33,30,87,81,75,29.94,29.85,29.81,6,6,5,15,10,,0.00,7,Rain,232
2011-11-30,46,42,37,32,30,28,75,64,53,30.09,30.05,30.00,10,10,10,14,10,21,0.00,2,,281